DateTime,Index
2004081700,0.0
2004081706,0.0
2004081712,0.0
2004081718,0.0
2004081800,0.0
2004081806,0.0
2004081812,0.0
2004081818,0.0
2004081900,0.0
2004081906,1600.0
2004081912,2025.0
2004081918,3025.0
2004082000,3600.0
2004082006,3600.0
2004082012,4225.0
2004082018,4225.0
2004082100,4225.0
2004082106,4900.0
2004082112,5625.0
2004082118,8100.0
2004082200,9025.0
2004082206,13225.0
2004082212,15625.0
2004082218,21025.0
2004082300,24025.0
2004082306,24025.0
2004082312,24025.0
2004082318,24025.0
2004082400,24025.0
2004082406,22500.0
2004082412,21025.0
2004082418,24025.0
2004082500,22500.0
2004082506,19600.0
2004082512,21025.0
2004082518,21025.0
2004082600,16900.0
2004082606,15625.0
2004082612,13225.0
2004082618,13225.0
2004082700,11025.0
2004082706,10000.0
2004082712,11025.0
2004082718,13225.0
2004082800,13225.0
2004082806,13225.0
2004082812,12100.0
2004082818,12100.0
2004082900,11025.0
2004082906,11025.0
2004082912,9025.0
2004082918,9025.0
2004083000,8100.0
2004083006,7225.0
2004083012,5625.0
2004083018,4900.0
2004083100,3025.0
2004083106,2500.0
2004083112,1600.0
